Location: Unspecified
(0.0000°N, 0.0000°E)
Time: 20:56:09
(UTC+02:00)

Haruka - Visible Passes

Search period start: 24 June 2018 00:00
Search period end: 04 July 2018 00:00
Orbit: 541 x 21215 km, 31.3° (Epoch: 23 June)

Date Brightness Start Highest point End Pass type
(mag) Time Alt. Az. Time Alt. Az. Time Alt. Az.
24 Jun 8.1 02:17:24 34° SE 02:17:24 34° SE 06:21:16 10° ENE visible
25 Jun 7.8 03:21:46 49° SSE 03:34:26 52° SE 07:54:09 10° NE visible
26 Jun 7.7 04:26:08 52° SSW 05:02:50 71° ESE 09:14:00 10° NE visible
27 Jun 7.8 05:30:30 39° SW 06:36:29 88° WNW 10:28:46 10° NE visible
28 Jun 8.1 06:34:52 22° WSW 08:05:09 67° WNW 11:40:57 10° NE visible
29 Jun 8.4 01:23:08 23° ESE 01:23:08 23° ESE 04:36:01 10° ENE visible
30 Jun 8.0 02:27:30 42° SE 02:27:30 42° SE 06:39:51 10° ENE visible
01 Jul 7.8 03:31:52 58° SSE 03:45:49 61° SE 08:07:15 10° NE visible
02 Jul 7.7 04:36:14 55° SSW 05:13:24 82° SE 09:25:31 10° NE visible
03 Jul 7.9 05:40:36 38° WSW 06:46:05 78° WNW 10:39:41 10° NE visible
